sat.trackr.live / text

‹ back to catalog

STARLINK-3972

NORAD 52669 · 2022-053P

PAYLOAD ACTIVE UNKNOWN

§ Identity

Operator
Country
US
Launch date
2022-05-18
Launch site
AFETR
Launch vehicle
Mass (kg)
RCS (m²)

Purposes: comms

External: N2YO · Heavens-Above · Gunter

§ Orbital elements

Epoch: 2026-09-19T17:28:26.457600Z

Period
93.85 min
Inclination
53.1608°
Eccentricity
0.0000603
Mean motion
15.34387121 rev/d
Perigee alt
462.3 km
Apogee alt
463.2 km
Semi-major
6,840.9 km
B*
6.2017e-5
RAAN
351.1487°
Arg perigee
67.4336°
Mean anomaly
292.6730°
Rev number
24,049

§ Raw data

STARLINK-39721 52669U 22053P   26262.72808400  .00001719  00000+0  62017-4 0  99942 52669  53.1608 351.1487 0000603  67.4336 292.6730 15.34387121240493

JSON: /api/v1/satellites/52669 · /tle

For live sub-satellite position, see the globe view (requires WebGL).

§ Visibility from observer

Set your observer location to see the next 7 days of passes ≥ 10°. The values pass through the URL so the page stays shareable.

No JS? Fill the form by hand. The geolocation button needs JavaScript.